Weather History for Santa Fe, NM

Change the Weather History Date:

Saturday, January 4, 2014

  Actual Average Record
Temperature  
Mean Temperature 38 °F -  
Max Temperature 52 °F 0 °F 55 °F (2003)
Min Temperature 23 °F - 0 °F (2013)
Degree Days  
Heating Degree Days 26    
Moisture  
Dew Point 11 °F    
Average Humidity 37    
Maximum Humidity 61    
Minimum Humidity 18    
Precipitation  
Precipitation 0.00 in - - ()
Sea Level Pressure  
Sea Level Pressure 29.79 in    
Wind  
Wind Speed 8 mph (WNW)    
Max Wind Speed 26 mph    
Max Gust Speed 39 mph    
Visibility 10 miles    
Events      
Averages and records for this station are not official NWS values.
T = Trace of Precipitation, MM = Missing Value Source: NWS Daily Summary

Daily Weather History Graph

Daily Weather History Graph

Search for Another Location

Airport:

Trip Planner

Search our weather history database for the weather conditions in past years. The results will help you decide how hot, cold, wet, or windy it might be!

Date:

Astronomy

Jan. 04, 2014 Rise Set
Actual Time 7:14 AM MST 5:04 PM MST
Civil Twilight 6:46 AM MST 5:32 PM MST
Nautical Twilight 6:14 AM MST 6:04 PM MST
Astronomical Twilight 5:43 AM MST 6:35 PM MST
Moon 9:30 AM MST (1/4) 9:18 PM MST (1/4)
Length of Visible Light 10h 46m
Length of Day
9h 50m
Waxing Crescent, 16% of the Moon is Illuminated
Jan 4
Waxing Crescent
Jan 7
First Quarter
Jan 15
Full
Jan 23
Last Quarter
Jan 30
New

Hourly Weather History & Observations

Time (MST) Temp. Windchill Dew Point Humidity Pressure Visibility Wind Dir Wind Speed Gust Speed Precip Events Conditions
12:53 AM 32.0 °F 28.7 °F 14.0 °F 48% 29.82 in 10.0 mi South 3.5 mph - N/A   Clear
1:53 AM 33.1 °F 30.0 °F 12.9 °F 43% 29.80 in 10.0 mi NW 3.5 mph - N/A   Clear
2:53 AM 30.9 °F 26.2 °F 14.0 °F 50% 29.82 in 10.0 mi NNW 4.6 mph - N/A   Clear
3:53 AM 28.9 °F 25.2 °F 14.0 °F 54% 29.82 in 10.0 mi NNW 3.5 mph - N/A   Clear
4:53 AM 32.0 °F - 12.9 °F 45% 29.83 in 10.0 mi Calm Calm - N/A   Clear
5:53 AM 27.0 °F 23.0 °F 14.0 °F 58% 29.86 in 10.0 mi East 3.5 mph - N/A   Clear
6:53 AM 28.9 °F - 14.0 °F 54% 29.86 in 10.0 mi Calm Calm - N/A   Clear
7:53 AM 28.9 °F 25.2 °F 17.1 °F 61% 29.83 in 10.0 mi SE 3.5 mph - N/A   Clear
8:53 AM 37.9 °F 35.5 °F 17.1 °F 43% 29.81 in 10.0 mi SW 3.5 mph - N/A   Clear
9:53 AM 39.9 °F - 16.0 °F 38% 29.82 in 10.0 mi Calm Calm - N/A   Clear
10:53 AM 45.0 °F 38.5 °F 17.1 °F 33% 29.74 in 10.0 mi WSW 13.8 mph - N/A   Clear
11:53 AM 48.0 °F - 18.0 °F 30% 29.67 in 10.0 mi WSW 20.7 mph 31.1 mph N/A   Clear
12:53 PM 50.0 °F - 18.0 °F 28% 29.64 in 10.0 mi WSW 20.7 mph 28.8 mph N/A   Clear
1:53 PM 52.0 °F - 14.0 °F 22% 29.59 in 8.0 mi West 25.3 mph 39.1 mph N/A   Clear
2:53 PM 52.0 °F - 15.1 °F 23% 29.59 in 10.0 mi West 26.5 mph 34.5 mph N/A   Clear
3:53 PM 50.0 °F - 14.0 °F 24% 29.63 in 10.0 mi WNW 21.9 mph 34.5 mph N/A   Clear
4:53 PM 45.0 °F 37.6 °F 16.0 °F 31% 29.68 in 10.0 mi NW 17.3 mph 28.8 mph N/A   Partly Cloudy
5:53 PM 39.9 °F 29.7 °F 17.1 °F 40% 29.77 in 10.0 mi NW 23.0 mph 29.9 mph N/A   Scattered Clouds
6:53 PM 36.0 °F 25.0 °F 14.0 °F 41% 29.82 in 10.0 mi NNW 20.7 mph 27.6 mph N/A   Clear
7:53 PM 34.0 °F 23.0 °F 5.0 °F 30% 29.86 in 10.0 mi NW 18.4 mph - N/A   Clear
8:53 PM 30.9 °F 21.2 °F -9.0 °F 18% 29.86 in 10.0 mi NNW 12.7 mph - N/A   Overcast
9:53 PM 27.0 °F 18.0 °F -11.0 °F 19% 29.91 in 10.0 mi North 9.2 mph - N/A   Clear
10:53 PM 25.0 °F 13.6 °F -2.9 °F 30% 29.91 in 10.0 mi NE 12.7 mph 27.6 mph N/A   Clear
11:53 PM 23.0 °F 15.8 °F -2.9 °F 32% 29.94 in 10.0 mi North 5.8 mph - N/A   Clear